Вернуться в каталог

ONEWEB-0385

АктивенСвязьPO
NORAD 49311·PAYLOAD·🇬🇧 United Kingdom

Запущен Oct 14, 2021 с Vostochny Cosmodrome

Loading…

Ближайшие Пролёты (ближайшие 24 часа)

TLE

СвежийSource: CelesTrak SupGP

Эпоха: Sep 14, 2026, 13:19 UTC

1 49311C 21090AJ  26257.55537454 -.00000239  00000+0 -58953-3 0  2575
2 49311  87.9141 256.6122 0002138  93.8019  18.6022 13.20771946    18

Отслеживайте ONEWEB-0385 в реальном времени с AllMySat

Download on the App Store